20.04.2024;04:00;62
20.04.2024;03:00;66
20.04.2024;02:00;58
20.04.2024;01:00;57
20.04.2024;00:00;59
19.04.2024;23:00;64
19.04.2024;22:00;69
19.04.2024;21:00;73
19.04.2024;20:00;74
19.04.2024;19:00;77
19.04.2024;18:00;78
19.04.2024;17:00;79
19.04.2024;16:00;80
19.04.2024;15:00;77
19.04.2024;14:00;79
19.04.2024;13:00;69
19.04.2024;12:00;69
19.04.2024;11:00;66
19.04.2024;10:00;54
19.04.2024;09:00;52
19.04.2024;08:00;49
19.04.2024;07:00;49
19.04.2024;06:00;52
19.04.2024;05:00;51
19.04.2024;04:00;52
19.04.2024;03:00;61
19.04.2024;02:00;63
19.04.2024;01:00;59
19.04.2024;00:00;57
18.04.2024;23:00;55
18.04.2024;22:00;50
18.04.2024;21:00;51
18.04.2024;20:00;52
18.04.2024;19:00;55
18.04.2024;18:00;60
18.04.2024;17:00;72
18.04.2024;16:00;60
18.04.2024;15:00;55
18.04.2024;14:00;55
18.04.2024;13:00;61
18.04.2024;12:00;52
18.04.2024;11:00;31
18.04.2024;10:00;17
18.04.2024;09:00;21
18.04.2024;08:00;40
18.04.2024;07:00;46
18.04.2024;06:00;58
18.04.2024;05:00;54
